FLOCK 3K-1 (43894 NORAD) Tracking and Keplerian Element Data

This shows tracking and keplerian element data for the satellite.

Feedback or suggestion? Click here.




ElementValue
Catalog43894
NameFLOCK 3K-1
Epoch Orbit13516
Epoch Day151.71888446
Epoch Year2021
RAAN47.5941
Inclination97.2349
Eccentricity0.0021248
Argument of Perigee358.8552
Mean Anonmoly1.2636
Mean Motion15.28036858
Decay Rate3.356E-05
L11 43894U 18111U 21151.71888446 .00003356 00000-0 12463-3 0 9992
L22 43894 97.2349 47.5941 0021248 358.8552 1.2636 15.28036858135167



Live tracking and technical data element details for FLOCK 3K-1 (NORAD 43894). FLOCK 3K-1 can be tracked NOW for your location showing map with azimuth and elevation plus other details from your city location.







IsCatalogInMostPopularTable: catalog: 43894, numindb: 449
Update: records affected: 1



GetName: 43894 FLOCK 3K-1

Hit Count: updated at: Sat, 17 May 2025 09:31:38 GMT